ChubuSat-2 (41338 NORAD) Tracking and Keplerian Element Data

This shows tracking and keplerian element data for the satellite.

Feedback or suggestion? Click here.




ElementValue
Catalog41338
NameChubuSat-2
Epoch Orbit47534
Epoch Day286.53412107
Epoch Year2024
RAAN354.3512
Inclination31.0021
Eccentricity0.0009834
Argument of Perigee335.8293
Mean Anonmoly24.1883
Mean Motion15.10762569
Decay Rate0.00012202
L11 41338U 16012B 24286.53412107 .00012202 00000-0 71058-3 0 9995
L22 41338 31.0021 354.3512 0009834 335.8293 24.1883 15.10762569475349



Live tracking and technical data element details for ChubuSat-2 (NORAD 41338). ChubuSat-2 can be tracked NOW for your location showing map with azimuth and elevation plus other details from your city location.







IsCatalogInMostPopularTable: catalog: 41338, numindb: 647
Update: records affected: 1



GetName: 41338 ChubuSat-2

Hit Count: updated at: Sat, 07 Mar 2026 06:22:24 GMT